SCP
0 0 0 0 0 0 0 0 0 2 3 4 4 3 3 3 3 3 2 2 2 2 4 4 4 3 2 5 5 2 1 1 1 1 1 1 1 1 1 0 1 1 0
0 0 0 0 0 0 0 0 0 1 2 3 4 4 4 3 3 3 4 3 3 3 3 4 5 4 4 4 4 3 2 2 4 3 2 0 1 1 1 1 2 3 2
0 0 0 0 0 0 0 0 0 0 1 2 3 4 5 5 4 3 3 3 3 3 4 5 5 5 5 4 4 5 5 4 4 4 3 1 2 2 1 2 2 2 1
0 0 0 0 0 0 0 0 0 0 0 1 2 5 4 4 4 4 4 4 3 4 4 4 5 8 6 6 4 5 9 8 8 4 3 4 2 1 0 1 2 1 1
0 0 0 0 0 0 0 0 0 0 0 1 1 2 3 3 3 3 5 6 7 5 4 4 6 5 4 5 3 4 6 6 5 2 1 1 2 2 1 0 0 1 0
0 0 0 0 0 0 0 0 0 0 0 0 1 2 4 4 2 4 4 5 6 6 5 5 7 8 8 6 4 4 5 4 3 1 1 1 1 1 1 1 2 2 2
0 0 0 0 0 0 0 0 0 0 0 0 1 1 2 3 5 5 6 5 5 11 7 7 8 8 8 5 5 4 3 2 2 2 1 1 1 1 5 1 0 0 0
0 0 0 0 0 0 -0 -0 0 0 0 0 0 1 1 3 4 6 5 5 6 8 7 6 7 5 5 4 4 5 4 4 3 3 3 1 1 1 2 1 0 0 0
0 0 0 0 0 0 0 0 0 0 0 0 0 0 1 2 4 6 8 6 8 6 5 5 6 5 4 4 4 4 4 4 3 3 2 2 1 1 1 2 1 0 0
0 0 0 0 0 0 0 0 0 0 0 0 1 1 1 2 2 3 3 4 3 2 2 3 3 3 4 4 5 6 5 7 5 3 2 2 2 2 2 1 0 0 0
0 0 0 0 0 0 0 0 0 0 0 0 1 2 2 2 3 3 2 2 3 2 2 1 1 2 2 2 4 5 6 6 5 4 3 1 2 3 1 1 1 2 1
0 0 0 0 0 0 0 0 0 0 0 0 0 1 1 1 1 2 3 3 3 2 1 1 1 1 1 2 2 3 3 3 3 3 2 1 2 1 1 2 1 1 1
0 0 0 0 0 0 0 0 0 0 0 0 0 0 1 0 1 1 2 2 1 1 1 0 1 1 1 1 1 2 1 2 2 2 2 1 1 1 1 1 1 1 1
0 0 0 0 0 0 0 0 0 0 0 0 0 0 0 1 1 1 1 1 1 1 1 0 0 0 0 0 1 1 0 0 0 1 0 0 0 0 0 0 0 0 0
0 0 0 0 0 0 0 0 0 0 0 0 0 0 0 0 1 0 0 1 0 0 0 1 0 0 0 0 0 0 0 0 0 0 0 0 0 0 0 0 0 0 0
0 0 0 0 0 0 0 0 0 0 0 0 0 0 0 0 -0 0 0 1 0 0 -0 -0 0 0 0 0 0 0 0 0 0 0 0 0 0 0 0 0 0 0 0
0 0 0 0 0 0 0 0 0 0 0 0 0 0 0 0 0 0 0 0 1 1 1 0 0 0 1 0 0 0 0 0 0 0 0 0 0 0 0 0 0 0 0
0 0 0 0 0 0 0 0 0 0 0 0 0 0 0 0 0 0 1 1 1 1 2 2 1 1 1 0 0 0 0 0 0 0 0 0 0 0 0 0 0 0 0
0 0 0 0 0 0 0 0 0 0 0 0 0 0 0 0 0 0 0 1 1 1 1 1 1 2 1 0 0 0 0 0 0 0 0 0 0 0 0 0 0 0 0
0 0 0 0 0 0 0 0 0 0 0 0 0 0 0 0 0 0 0 1 1 1 1 1 1 1 2 0 0 0 0 0 0 0 0 0 0 0 0 0 0 0 0
0 0 0 0 0 0 0 0 0 0 0 0 0 0 0 0 0 0 0 0 1 1 1 1 1 1 1 1 0 0 0 0 0 0 0 0 0 0 0 0 0 0 0
0 0 0 0 0 0 0 0 0 0 0 0 0 0 0 0 0 0 0 0 0 1 1 1 1 1 1 0 0 0 0 0 0 0 0 0 0 0 0 0 0 0 0
0 0 0 0 0 0 0 0 0 0 0 0 0 0 0 0 0 0 0 0 0 0 0 0 0 1 1 1 0 0 0 0 0 0 0 0 0 0 0 0 0 0 0
0 0 0 0 0 -0 0 -0 -0 0 -0 -0 -0 0 0 0 0 0 0 0 0 0 0 0 0 0 0 0 0 0 0 0 0 0 0 0 0 0 0 0 0 -0 -0
0 0 0 0 0 0 -0 -0 0 0 -0 -0 0 0 0 0 0 0 0 0 0 0 0 0 0 0 0 0 0 0 0 0 0 0 0 0 0 -0 0 0 -0 -0 -0
0 0 0 0 0 0 -0 -0 0 -0 -0 -0 0 0 0 0 0 0 0 0 0 0 0 0 0 0 0 0 0 0 0 0 0 0 0 -0 -0 -0 0 -0 -0 -0 -0
Wind_Speed_500mb
30 25 20 19 24 28 28 47 62 64 60 52 53 54 57 53 52 55 58 62 63 57 71 83 71 82 66 55 60 51 39 28 33 23 25 23 23 20 24 22 5 21 21
32 27 21 20 17 23 30 34 36 44 52 52 53 52 48 50 51 50 53 59 63 61 67 77 69 77 65 67 63 45 39 33 29 21 17 14 16 6 10 5 8 18 12
25 22 21 21 22 21 23 30 37 38 41 54 50 47 47 46 51 54 54 66 66 60 61 68 65 63 59 52 46 57 56 36 40 24 14 14 11 19 6 19 19 18 11
13 15 18 22 25 30 34 39 40 42 42 47 50 61 64 66 63 59 57 54 64 63 65 63 62 64 57 44 57 67 67 65 59 35 26 25 35 23 22 13 28 39 25
8 11 19 26 31 31 35 35 44 44 45 44 50 54 64 66 63 60 55 57 55 62 60 60 65 68 62 63 65 70 67 89 82 93 81 66 72 58 48 56 47 39 35
12 16 22 28 32 36 36 36 39 50 49 49 53 58 64 69 64 63 61 57 52 52 59 55 58 59 55 56 58 60 76 83 81 91 108 85 78 66 70 68 65 43 55
17 23 29 34 38 43 45 44 41 44 51 59 59 59 66 66 71 71 63 55 55 59 55 57 60 60 58 53 61 63 64 65 63 69 76 81 78 69 69 67 56 37 52
26 31 36 40 43 45 46 41 42 45 46 47 56 61 65 56 60 62 59 57 57 55 57 54 53 55 51 52 52 53 59 56 56 62 63 58 55 56 75 72 65 65 70
38 45 47 41 42 43 41 36 34 37 41 42 43 52 55 59 55 57 55 53 51 48 48 50 49 50 50 50 49 52 54 62 62 67 67 59 53 49 57 71 62 63 58
41 42 42 46 48 43 36 33 31 31 31 34 30 31 33 39 44 52 55 49 43 43 39 43 42 41 44 44 47 49 49 52 50 48 49 53 49 58 64 67 61 65 73
41 37 38 38 35 36 32 29 29 30 25 19 20 17 18 25 31 35 36 35 37 38 35 33 35 34 37 39 41 43 48 49 51 49 44 49 49 55 48 62 67 67 72
33 34 35 32 30 29 29 31 29 27 25 23 18 19 21 23 28 29 27 28 28 20 22 27 29 30 33 32 34 37 38 39 42 44 45 43 42 44 44 45 50 56 61
30 31 32 32 30 31 30 30 31 30 30 29 24 26 20 23 27 30 24 23 23 22 24 28 29 30 31 32 31 30 32 31 29 29 30 28 27 26 27 31 38 42 52
32 35 35 36 32 32 33 34 34 34 35 33 34 46 44 37 42 27 28 24 21 21 25 29 29 33 32 32 30 29 29 29 27 25 23 21 22 24 26 30 35 37 41
40 41 39 38 38 42 44 43 41 39 38 36 32 36 46 56 45 60 49 43 49 48 30 37 41 35 34 34 33 30 29 28 26 22 18 16 19 23 23 24 27 34 36
47 50 49 49 49 49 49 48 48 46 43 44 41 33 35 52 63 41 67 82 68 63 69 63 53 47 39 40 40 34 30 28 27 22 17 16 18 19 22 24 28 35 41
57 60 56 55 54 52 51 52 51 53 51 48 47 45 42 40 40 42 46 50 83 85 90 89 70 58 51 47 43 42 36 33 31 25 21 14 15 24 18 23 28 31 35
57 59 60 65 66 64 63 61 58 58 56 55 54 52 52 49 44 43 43 45 48 56 71 84 84 67 61 59 55 53 50 37 35 32 28 25 24 25 24 31 34 32 30
64 72 72 74 70 70 65 62 68 65 63 64 61 57 55 55 50 49 46 42 40 43 49 61 72 72 67 67 65 61 62 50 44 38 36 34 35 33 33 37 43 39 38
74 77 76 83 79 71 67 70 77 71 64 61 60 57 56 56 55 51 48 45 46 43 46 52 58 67 64 67 76 73 60 53 49 45 44 50 50 44 40 42 46 45 40
81 83 85 86 83 74 71 73 71 69 62 60 61 62 63 66 61 54 52 51 49 50 48 48 47 52 63 65 79 80 78 64 54 54 48 46 51 47 39 41 52 57 56
88 88 85 87 81 90 71 73 77 75 72 65 65 66 69 65 66 66 60 56 56 56 52 46 47 47 48 60 67 78 82 79 68 64 53 49 53 57 50 47 58 59 62
80 81 81 76 74 77 68 72 71 72 65 61 61 54 62 70 66 65 63 66 65 66 65 62 60 58 52 49 61 63 66 66 67 63 54 55 56 58 59 60 63 67 66
87 86 86 79 81 77 66 62 75 69 63 67 65 63 63 67 64 64 59 64 68 73 75 72 71 66 64 60 53 67 71 66 65 63 62 65 62 61 59 62 66 58 48
91 72 75 88 78 73 72 76 60 59 62 65 64 64 62 63 62 65 61 76 72 74 76 78 76 72 72 70 65 59 52 58 67 62 57 55 51 55 54 52 50 49 46
90 87 71 75 71 65 59 58 60 50 57 66 62 60 60 62 64 67 66 77 89 83 81 78 69 71 71 68 66 68 68 60 53 51 55 60 62 65 60 55 51 47 47
Wind_Direction_500mb
268 261 269 288 292 281 279 265 252 251 244 233 228 228 228 227 229 227 231 233 239 228 229 232 233 243 244 234 242 249 251 253 251 242 267 274 283 289 290 292 13 346 289
264 265 273 288 297 294 283 276 281 268 246 237 237 232 233 235 235 233 231 233 236 233 232 234 232 242 238 238 237 239 235 233 235 227 226 261 284 235 352 273 359 21 5
269 281 287 300 307 306 303 291 278 269 264 244 243 238 235 237 236 235 235 238 238 236 236 237 231 238 241 233 233 229 245 227 224 215 218 220 215 291 352 315 292 287 339
287 293 306 312 316 313 305 296 291 278 264 257 240 238 236 236 238 238 239 238 242 236 234 230 230 230 221 221 235 248 242 225 236 226 257 271 265 253 274 268 291 293 281
290 322 328 327 321 317 315 307 289 287 276 261 252 238 243 241 245 242 238 242 236 234 227 227 225 226 237 237 237 244 242 235 236 244 256 273 254 251 255 266 267 275 290
312 316 318 318 317 317 313 314 306 287 278 272 264 257 241 244 240 239 236 234 230 228 219 215 217 225 235 227 229 238 234 239 242 243 239 241 239 247 252 256 247 260 264
319 323 323 324 320 316 314 311 308 306 297 281 269 261 256 252 242 236 234 230 229 226 223 214 222 223 227 220 227 228 234 247 246 249 238 241 248 249 242 243 237 245 258
320 321 324 322 318 313 308 307 306 307 302 288 273 264 255 248 246 240 232 233 227 223 218 214 219 226 220 229 228 230 244 240 242 239 239 242 245 239 252 238 247 255 267
322 324 322 322 323 318 308 303 304 306 309 298 278 264 256 248 235 229 230 221 214 213 210 213 212 216 222 227 230 232 235 240 243 246 252 248 238 241 240 244 247 246 264
318 319 322 324 325 322 312 302 308 308 311 313 295 273 255 243 235 229 225 201 197 193 204 208 209 215 218 220 226 232 238 236 237 241 238 238 235 243 249 251 252 249 256
315 311 312 315 319 324 329 317 306 318 318 322 309 280 250 230 215 209 198 193 197 203 206 213 215 221 227 230 232 234 235 236 236 234 228 233 230 237 241 239 249 246 248
300 302 305 305 310 320 329 330 331 330 318 321 324 305 270 236 213 195 188 181 177 184 196 204 207 211 217 218 224 231 235 236 236 236 236 235 234 237 236 240 243 246 250
292 299 299 302 300 305 315 320 326 326 326 313 298 278 324 271 239 210 192 191 189 194 203 203 200 206 209 211 214 222 229 236 232 229 230 233 234 235 238 241 248 254 253
288 295 300 299 298 304 310 312 312 315 318 322 289 251 277 300 261 235 227 227 225 228 218 216 212 213 210 212 210 212 221 225 227 223 221 229 231 238 244 247 250 253 256
288 297 297 295 293 298 301 301 300 303 305 303 303 274 245 268 292 248 248 272 246 247 242 229 219 214 213 208 208 208 212 214 209 206 201 213 212 228 245 249 253 250 256
294 296 294 292 293 295 296 295 296 296 295 289 286 282 274 247 263 244 238 234 235 232 232 230 224 213 208 213 204 191 195 194 193 197 201 211 246 255 260 268 275 278 279
296 296 292 289 290 292 291 287 288 294 291 287 278 271 265 255 248 249 238 233 232 236 228 228 223 216 211 212 210 201 195 199 201 206 212 230 248 269 274 292 302 300 293
294 292 289 289 287 286 291 285 282 283 285 284 279 271 264 259 253 247 243 234 229 227 221 224 224 222 216 215 215 212 210 211 216 220 228 252 258 274 282 295 296 302 299
293 293 291 289 284 283 284 279 280 279 279 281 275 271 262 255 251 247 243 238 234 226 224 222 220 219 220 220 222 222 224 222 225 230 235 245 263 270 284 288 297 298 302
294 294 290 291 285 286 281 277 275 272 272 279 273 267 260 251 248 245 242 236 232 229 223 220 217 220 219 223 225 224 221 226 229 235 238 252 258 265 280 282 288 291 297
292 292 291 286 285 280 280 278 273 266 270 274 271 261 255 250 248 244 236 232 227 225 226 221 217 219 225 219 230 227 227 226 233 236 239 249 260 263 268 279 282 289 298
297 293 292 292 288 288 273 279 275 267 267 276 268 262 252 250 246 241 236 231 227 223 218 215 216 220 216 223 225 228 228 226 226 234 240 245 250 262 272 277 285 288 290
301 300 296 294 294 279 280 279 278 268 276 270 266 252 255 251 248 244 235 230 225 222 221 220 221 221 220 218 223 224 226 228 226 228 235 240 247 257 270 277 283 281 288
305 302 298 290 286 292 269 270 280 271 267 264 261 258 254 249 243 237 234 232 227 225 224 223 224 224 224 221 221 224 224 224 225 228 232 239 249 258 260 268 277 281 279
302 298 300 298 290 285 278 285 271 273 265 267 258 259 250 243 238 228 228 234 228 226 225 226 225 223 223 223 221 220 223 227 232 232 239 244 250 254 259 263 266 268 273
306 305 300 297 295 291 286 280 280 267 267 262 264 252 250 240 237 234 235 235 234 224 223 223 222 226 227 226 226 226 225 224 224 232 237 242 245 248 254 257 261 263 268
Wind_Speed_850mb
30 25 20 19 24 28 28 47 62 64 60 52 53 54 57 53 52 55 58 62 63 57 71 83 71 82 66 55 60 51 39 28 33 23 25 23 23 20 24 22 5 21 21
32 27 21 20 17 23 30 34 36 44 52 52 53 52 48 50 51 50 53 59 63 61 67 77 69 77 65 67 63 45 39 33 29 21 17 14 16 6 10 5 8 18 12
25 22 21 21 22 21 23 30 37 38 41 54 50 47 47 46 51 54 54 66 66 60 61 68 65 63 59 52 46 57 56 36 40 24 14 14 11 19 6 19 19 18 11
13 15 18 22 25 30 34 39 40 42 42 47 50 61 64 66 63 59 57 54 64 63 65 63 62 64 57 44 57 67 67 65 59 35 26 25 35 23 22 13 28 39 25
8 11 19 26 31 31 35 35 44 44 45 44 50 54 64 66 63 60 55 57 55 62 60 60 65 68 62 63 65 70 67 89 82 93 81 66 72 58 48 56 47 39 35
12 16 22 28 32 36 36 36 39 50 49 49 53 58 64 69 64 63 61 57 52 52 59 55 58 59 55 56 58 60 76 83 81 91 108 85 78 66 70 68 65 43 55
17 23 29 34 38 43 45 44 41 44 51 59 59 59 66 66 71 71 63 55 55 59 55 57 60 60 58 53 61 63 64 65 63 69 76 81 78 69 69 67 56 37 52
26 31 36 40 43 45 46 41 42 45 46 47 56 61 65 56 60 62 59 57 57 55 57 54 53 55 51 52 52 53 59 56 56 62 63 58 55 56 75 72 65 65 70
38 45 47 41 42 43 41 36 34 37 41 42 43 52 55 59 55 57 55 53 51 48 48 50 49 50 50 50 49 52 54 62 62 67 67 59 53 49 57 71 62 63 58
41 42 42 46 48 43 36 33 31 31 31 34 30 31 33 39 44 52 55 49 43 43 39 43 42 41 44 44 47 49 49 52 50 48 49 53 49 58 64 67 61 65 73
41 37 38 38 35 36 32 29 29 30 25 19 20 17 18 25 31 35 36 35 37 38 35 33 35 34 37 39 41 43 48 49 51 49 44 49 49 55 48 62 67 67 72
33 34 35 32 30 29 29 31 29 27 25 23 18 19 21 23 28 29 27 28 28 20 22 27 29 30 33 32 34 37 38 39 42 44 45 43 42 44 44 45 50 56 61
30 31 32 32 30 31 30 30 31 30 30 29 24 26 20 23 27 30 24 23 23 22 24 28 29 30 31 32 31 30 32 31 29 29 30 28 27 26 27 31 38 42 52
32 35 35 36 32 32 33 34 34 34 35 33 34 46 44 37 42 27 28 24 21 21 25 29 29 33 32 32 30 29 29 29 27 25 23 21 22 24 26 30 35 37 41
40 41 39 38 38 42 44 43 41 39 38 36 32 36 46 56 45 60 49 43 49 48 30 37 41 35 34 34 33 30 29 28 26 22 18 16 19 23 23 24 27 34 36
47 50 49 49 49 49 49 48 48 46 43 44 41 33 35 52 63 41 67 82 68 63 69 63 53 47 39 40 40 34 30 28 27 22 17 16 18 19 22 24 28 35 41
57 60 56 55 54 52 51 52 51 53 51 48 47 45 42 40 40 42 46 50 83 85 90 89 70 58 51 47 43 42 36 33 31 25 21 14 15 24 18 23 28 31 35
57 59 60 65 66 64 63 61 58 58 56 55 54 52 52 49 44 43 43 45 48 56 71 84 84 67 61 59 55 53 50 37 35 32 28 25 24 25 24 31 34 32 30
64 72 72 74 70 70 65 62 68 65 63 64 61 57 55 55 50 49 46 42 40 43 49 61 72 72 67 67 65 61 62 50 44 38 36 34 35 33 33 37 43 39 38
74 77 76 83 79 71 67 70 77 71 64 61 60 57 56 56 55 51 48 45 46 43 46 52 58 67 64 67 76 73 60 53 49 45 44 50 50 44 40 42 46 45 40
81 83 85 86 83 74 71 73 71 69 62 60 61 62 63 66 61 54 52 51 49 50 48 48 47 52 63 65 79 80 78 64 54 54 48 46 51 47 39 41 52 57 56
88 88 85 87 81 90 71 73 77 75 72 65 65 66 69 65 66 66 60 56 56 56 52 46 47 47 48 60 67 78 82 79 68 64 53 49 53 57 50 47 58 59 62
80 81 81 76 74 77 68 72 71 72 65 61 61 54 62 70 66 65 63 66 65 66 65 62 60 58 52 49 61 63 66 66 67 63 54 55 56 58 59 60 63 67 66
87 86 86 79 81 77 66 62 75 69 63 67 65 63 63 67 64 64 59 64 68 73 75 72 71 66 64 60 53 67 71 66 65 63 62 65 62 61 59 62 66 58 48
91 72 75 88 78 73 72 76 60 59 62 65 64 64 62 63 62 65 61 76 72 74 76 78 76 72 72 70 65 59 52 58 67 62 57 55 51 55 54 52 50 49 46
90 87 71 75 71 65 59 58 60 50 57 66 62 60 60 62 64 67 66 77 89 83 81 78 69 71 71 68 66 68 68 60 53 51 55 60 62 65 60 55 51 47 47
Wind_Direction_850mb
268 261 269 288 292 281 279 265 252 251 244 233 228 228 228 227 229 227 231 233 239 228 229 232 233 243 244 234 242 249 251 253 251 242 267 274 283 289 290 292 13 346 289
264 265 273 288 297 294 283 276 281 268 246 237 237 232 233 235 235 233 231 233 236 233 232 234 232 242 238 238 237 239 235 233 235 227 226 261 284 235 352 273 359 21 5
269 281 287 300 307 306 303 291 278 269 264 244 243 238 235 237 236 235 235 238 238 236 236 237 231 238 241 233 233 229 245 227 224 215 218 220 215 291 352 315 292 287 339
287 293 306 312 316 313 305 296 291 278 264 257 240 238 236 236 238 238 239 238 242 236 234 230 230 230 221 221 235 248 242 225 236 226 257 271 265 253 274 268 291 293 281
290 322 328 327 321 317 315 307 289 287 276 261 252 238 243 241 245 242 238 242 236 234 227 227 225 226 237 237 237 244 242 235 236 244 256 273 254 251 255 266 267 275 290
312 316 318 318 317 317 313 314 306 287 278 272 264 257 241 244 240 239 236 234 230 228 219 215 217 225 235 227 229 238 234 239 242 243 239 241 239 247 252 256 247 260 264
319 323 323 324 320 316 314 311 308 306 297 281 269 261 256 252 242 236 234 230 229 226 223 214 222 223 227 220 227 228 234 247 246 249 238 241 248 249 242 243 237 245 258
320 321 324 322 318 313 308 307 306 307 302 288 273 264 255 248 246 240 232 233 227 223 218 214 219 226 220 229 228 230 244 240 242 239 239 242 245 239 252 238 247 255 267
322 324 322 322 323 318 308 303 304 306 309 298 278 264 256 248 235 229 230 221 214 213 210 213 212 216 222 227 230 232 235 240 243 246 252 248 238 241 240 244 247 246 264
318 319 322 324 325 322 312 302 308 308 311 313 295 273 255 243 235 229 225 201 197 193 204 208 209 215 218 220 226 232 238 236 237 241 238 238 235 243 249 251 252 249 256
315 311 312 315 319 324 329 317 306 318 318 322 309 280 250 230 215 209 198 193 197 203 206 213 215 221 227 230 232 234 235 236 236 234 228 233 230 237 241 239 249 246 248
300 302 305 305 310 320 329 330 331 330 318 321 324 305 270 236 213 195 188 181 177 184 196 204 207 211 217 218 224 231 235 236 236 236 236 235 234 237 236 240 243 246 250
292 299 299 302 300 305 315 320 326 326 326 313 298 278 324 271 239 210 192 191 189 194 203 203 200 206 209 211 214 222 229 236 232 229 230 233 234 235 238 241 248 254 253
288 295 300 299 298 304 310 312 312 315 318 322 289 251 277 300 261 235 227 227 225 228 218 216 212 213 210 212 210 212 221 225 227 223 221 229 231 238 244 247 250 253 256
288 297 297 295 293 298 301 301 300 303 305 303 303 274 245 268 292 248 248 272 246 247 242 229 219 214 213 208 208 208 212 214 209 206 201 213 212 228 245 249 253 250 256
294 296 294 292 293 295 296 295 296 296 295 289 286 282 274 247 263 244 238 234 235 232 232 230 224 213 208 213 204 191 195 194 193 197 201 211 246 255 260 268 275 278 279
296 296 292 289 290 292 291 287 288 294 291 287 278 271 265 255 248 249 238 233 232 236 228 228 223 216 211 212 210 201 195 199 201 206 212 230 248 269 274 292 302 300 293
294 292 289 289 287 286 291 285 282 283 285 284 279 271 264 259 253 247 243 234 229 227 221 224 224 222 216 215 215 212 210 211 216 220 228 252 258 274 282 295 296 302 299
293 293 291 289 284 283 284 279 280 279 279 281 275 271 262 255 251 247 243 238 234 226 224 222 220 219 220 220 222 222 224 222 225 230 235 245 263 270 284 288 297 298 302
294 294 290 291 285 286 281 277 275 272 272 279 273 267 260 251 248 245 242 236 232 229 223 220 217 220 219 223 225 224 221 226 229 235 238 252 258 265 280 282 288 291 297
292 292 291 286 285 280 280 278 273 266 270 274 271 261 255 250 248 244 236 232 227 225 226 221 217 219 225 219 230 227 227 226 233 236 239 249 260 263 268 279 282 289 298
297 293 292 292 288 288 273 279 275 267 267 276 268 262 252 250 246 241 236 231 227 223 218 215 216 220 216 223 225 228 228 226 226 234 240 245 250 262 272 277 285 288 290
301 300 296 294 294 279 280 279 278 268 276 270 266 252 255 251 248 244 235 230 225 222 221 220 221 221 220 218 223 224 226 228 226 228 235 240 247 257 270 277 283 281 288
305 302 298 290 286 292 269 270 280 271 267 264 261 258 254 249 243 237 234 232 227 225 224 223 224 224 224 221 221 224 224 224 225 228 232 239 249 258 260 268 277 281 279
302 298 300 298 290 285 278 285 271 273 265 267 258 259 250 243 238 228 228 234 228 226 225 226 225 223 223 223 221 220 223 227 232 232 239 244 250 254 259 263 266 268 273
306 305 300 297 295 291 286 280 280 267 267 262 264 252 250 240 237 234 235 235 234 224 223 223 222 226 227 226 226 226 225 224 224 232 237 242 245 248 254 257 261 263 268